Location: Poughquag
(41.6090°N, 73.6820°W)
Time: 08:30:57
(UTC-05:00)

SR - Pass Details

Date: 15 December 2023
Orbit: 574 x 868 km, 66.7° (Epoch: 25 February)

Event Time Altitude Azimuth Distance (km) Brightness Sun altitude
Rises 08:09:23 0° 192° (SSW) 3,250 ? 7.5°
Reaches altitude 10° 08:11:47 10° 187° (S) 2,366 ? 7.8°
Maximum altitude 08:17:03 49° 113° (ESE) 1,064 ? 8.6°
Drops below altitude 10° 08:22:38 10° 40° (NE) 2,504 ? 9.4°
Sets 08:25:14 0° 35° (NE) 3,457 ? 9.7°
